When you browse on this site, cookies collect data to enhance your experience and personalize the content and advertising you see.
Visit our Privacy Policy to learn more. By continuing to use the site, you agree to this use of cookies and data.
  • Em Portugal
  • Lista de países
  • Para 7 dias
  • Temperatura da água
  • Mapa do tempo
  • Widgets de tempo
  • user-avatar
    Iniciar Sessão

    Previsão horária em Mendoza

    Hoje, 8 Dezembro, Domingo

    Tempo Temperatura Precipitação Vento Pressão Humidade
    00:00 +25°C° 0.1 mm 4 m/s 697 mmHg 49%
    01:00 +23°C° 0.1 mm 4 m/s 697 mmHg 51%
    02:00 +24°C° 0.1 mm 3 m/s 696 mmHg 52%
    03:00 +22°C° 0.1 mm 3 m/s 696 mmHg 53%
    04:00 +22°C° 0.1 mm 3 m/s 696 mmHg 55%
    05:00 +24°C° 0 mm 3 m/s 697 mmHg 49%
    06:00 +26°C° 0 mm 3 m/s 697 mmHg 43%
    07:00 +27°C° 0 mm 3 m/s 698 mmHg 38%
    08:00 +29°C° 0 mm 3 m/s 698 mmHg 35%
    09:00 +30°C° 0 mm 3 m/s 698 mmHg 32%
    10:00 +31°C° 0 mm 3 m/s 698 mmHg 30%
    11:00 +33°C° 0 mm 3 m/s 698 mmHg 27%
    12:00 +34°C° 0 mm 3 m/s 697 mmHg 24%
    13:00 +34°C° 0 mm 3 m/s 697 mmHg 21%
    14:00 +35°C° 0 mm 3 m/s 697 mmHg 20%
    15:00 +35°C° 0 mm 3 m/s 696 mmHg 19%
    16:00 +35°C° 0 mm 3 m/s 696 mmHg 18%
    17:00 +34°C° 0 mm 3 m/s 696 mmHg 19%
    18:00 +33°C° 0 mm 3 m/s 697 mmHg 21%
    19:00 +31°C° 0 mm 3 m/s 697 mmHg 22%
    20:00 +30°C° 0.1 mm 2 m/s 697 mmHg 25%
    21:00 +29°C° 0.1 mm 2 m/s 698 mmHg 29%
    22:00 +27°C° 0.1 mm 1 m/s 698 mmHg 32%
    23:00 +27°C° 0.2 mm 1 m/s 697 mmHg 35%

    Amanhã, 9 Dezembro, Segunda-feira

    Tempo Temperatura Precipitação Vento Pressão Humidade
    00:00 +26°C° 0.2 mm 2 m/s 697 mmHg 38%
    01:00 +26°C° 0.2 mm 3 m/s 697 mmHg 41%
    02:00 +25°C° 0 mm 2 m/s 697 mmHg 41%
    03:00 +25°C° 0 mm 2 m/s 697 mmHg 42%
    04:00 +25°C° 0 mm 1 m/s 697 mmHg 42%
    05:00 +26°C° 0 mm 1 m/s 697 mmHg 38%
    06:00 +28°C° 0 mm 1 m/s 697 mmHg 34%
    07:00 +29°C° 0 mm 1 m/s 698 mmHg 30%
    08:00 +31°C° 0 mm 2 m/s 698 mmHg 27%
    09:00 +33°C° 0 mm 4 m/s 698 mmHg 25%
    10:00 +35°C° 0 mm 5 m/s 698 mmHg 22%
    11:00 +36°C° 0 mm 5 m/s 697 mmHg 21%
    12:00 +36°C° 0 mm 5 m/s 697 mmHg 20%
    13:00 +38°C° 0 mm 6 m/s 696 mmHg 18%
    14:00 +37°C° 0.2 mm 5 m/s 696 mmHg 20%
    15:00 +36°C° 0.2 mm 5 m/s 695 mmHg 21%
    16:00 +36°C° 0.2 mm 4 m/s 695 mmHg 22%
    17:00 +34°C° 0.1 mm 4 m/s 695 mmHg 25%
    18:00 +33°C° 0.1 mm 4 m/s 696 mmHg 29%
    19:00 +30°C° 0.1 mm 4 m/s 696 mmHg 32%
    20:00 +30°C° 0 mm 3 m/s 696 mmHg 33%
    21:00 +29°C° 0 mm 2 m/s 696 mmHg 34%
    22:00 +29°C° 0 mm 2 m/s 697 mmHg 34%
    23:00 +28°C° 0 mm 2 m/s 696 mmHg 36%

    Depois de amanhã, 10 Dezembro, Terça-feira

    Tempo Temperatura Precipitação Vento Pressão Humidade
    00:00 +27°C° 0 mm 2 m/s 696 mmHg 37%
    01:00 +27°C° 0 mm 2 m/s 696 mmHg 38%
    02:00 +26°C° 0 mm 2 m/s 696 mmHg 38%
    03:00 +26°C° 0 mm 1 m/s 696 mmHg 38%
    04:00 +25°C° 0 mm 1 m/s 696 mmHg 38%
    05:00 +27°C° 0 mm 2 m/s 697 mmHg 35%
    06:00 +28°C° 0 mm 4 m/s 697 mmHg 32%
    07:00 +29°C° 0 mm 6 m/s 698 mmHg 30%
    08:00 +30°C° 0 mm 5 m/s 698 mmHg 28%
    09:00 +33°C° 0 mm 5 m/s 697 mmHg 27%
    10:00 +34°C° 0 mm 4 m/s 697 mmHg 26%
    11:00 +34°C° 0 mm 3 m/s 697 mmHg 24%
    12:00 +35°C° 0 mm 3 m/s 696 mmHg 23%
    13:00 +36°C° 0 mm 2 m/s 696 mmHg 21%
    14:00 +37°C° 0 mm 2 m/s 695 mmHg 20%
    15:00 +36°C° 0 mm 1 m/s 695 mmHg 19%
    16:00 +36°C° 0 mm 1 m/s 694 mmHg 18%
    17:00 +35°C° 0 mm 1 m/s 694 mmHg 19%
    18:00 +34°C° 0 mm 1 m/s 695 mmHg 21%
    19:00 +33°C° 0 mm 1 m/s 695 mmHg 23%
    20:00 +32°C° 0 mm 2 m/s 695 mmHg 25%
    21:00 +32°C° 0 mm 2 m/s 695 mmHg 27%
    22:00 +31°C° 0 mm 3 m/s 695 mmHg 29%
    23:00 +30°C° 0 mm 3 m/s 695 mmHg 30%

    11 Dezembro, Quarta-feira

    Tempo Temperatura Precipitação Vento Pressão Humidade
    00:00 +30°C° 0 mm 3 m/s 694 mmHg 31%
    01:00 +29°C° 0 mm 3 m/s 694 mmHg 33%
    02:00 +28°C° 0 mm 4 m/s 694 mmHg 33%
    03:00 +28°C° 0 mm 5 m/s 694 mmHg 33%
    04:00 +27°C° 0 mm 6 m/s 694 mmHg 33%
    05:00 +27°C° 0 mm 7 m/s 694 mmHg 31%
    06:00 +27°C° 0 mm 8 m/s 694 mmHg 30%
    07:00 +27°C° 0 mm 8 m/s 695 mmHg 28%
    08:00 +28°C° 0 mm 8 m/s 695 mmHg 25%
    09:00 +29°C° 0 mm 7 m/s 695 mmHg 22%
    10:00 +30°C° 0 mm 6 m/s 695 mmHg 19%
    11:00 +32°C° 0 mm 6 m/s 695 mmHg 19%
    12:00 +33°C° 0 mm 6 m/s 695 mmHg 18%
    13:00 +34°C° 0 mm 5 m/s 694 mmHg 17%
    14:00 +34°C° 0 mm 5 m/s 694 mmHg 17%
    15:00 +34°C° 0 mm 5 m/s 694 mmHg 17%
    16:00 +34°C° 0 mm 4 m/s 693 mmHg 17%
    17:00 +33°C° 0 mm 4 m/s 694 mmHg 19%
    18:00 +30°C° 0 mm 3 m/s 694 mmHg 21%
    19:00 +29°C° 0 mm 2 m/s 695 mmHg 23%
    20:00 +28°C° 0 mm 2 m/s 695 mmHg 24%
    21:00 +28°C° 0 mm 2 m/s 696 mmHg 25%
    22:00 +27°C° 0 mm 2 m/s 696 mmHg 26%
    23:00 +26°C° 0 mm 2 m/s 697 mmHg 25%

    12 Dezembro, Quinta-feira

    Tempo Temperatura Precipitação Vento Pressão Humidade
    00:00 +25°C° 0 mm 2 m/s 697 mmHg 23%
    01:00 +23°C° 0 mm 2 m/s 697 mmHg 22%
    02:00 +21°C° 0 mm 2 m/s 697 mmHg 22%
    03:00 +20°C° 0 mm 3 m/s 698 mmHg 22%
    04:00 +18°C° 0 mm 3 m/s 698 mmHg 22%
    05:00 +19°C° 0 mm 3 m/s 698 mmHg 21%
    06:00 +19°C° 0 mm 4 m/s 699 mmHg 20%
    07:00 +19°C° 0 mm 4 m/s 699 mmHg 20%
    08:00 +20°C° 0 mm 4 m/s 699 mmHg 19%
    09:00 +21°C° 0 mm 4 m/s 699 mmHg 19%
    10:00 +22°C° 0 mm 4 m/s 699 mmHg 18%
    11:00 +23°C° 0 mm 4 m/s 698 mmHg 17%
    12:00 +25°C° 0 mm 4 m/s 698 mmHg 16%
    13:00 +26°C° 0 mm 4 m/s 697 mmHg 16%
    14:00 +27°C° 0 mm 4 m/s 697 mmHg 15%
    15:00 +27°C° 0 mm 4 m/s 697 mmHg 15%
    16:00 +27°C° 0 mm 4 m/s 696 mmHg 15%
    17:00 +26°C° 0 mm 4 m/s 697 mmHg 16%
    18:00 +25°C° 0 mm 3 m/s 697 mmHg 17%
    19:00 +24°C° 0 mm 3 m/s 697 mmHg 18%
    20:00 +22°C° 0 mm 3 m/s 697 mmHg 20%
    21:00 +23°C° 0 mm 2 m/s 697 mmHg 21%
    22:00 +21°C° 0 mm 2 m/s 697 mmHg 22%
    23:00 +20°C° 0 mm 2 m/s 697 mmHg 24%

    13 Dezembro, Sexta-feira

    Tempo Temperatura Precipitação Vento Pressão Humidade
    00:00 +20°C° 0 mm 1 m/s 697 mmHg 25%
    01:00 +19°C° 0 mm 1 m/s 696 mmHg 27%
    02:00 +19°C° 0 mm 1 m/s 696 mmHg 27%
    03:00 +18°C° 0 mm 2 m/s 696 mmHg 27%
    04:00 +18°C° 0 mm 2 m/s 696 mmHg 28%
    05:00 +19°C° 0 mm 2 m/s 696 mmHg 25%
    06:00 +21°C° 0 mm 2 m/s 696 mmHg 23%
    07:00 +22°C° 0 mm 3 m/s 697 mmHg 20%
    08:00 +25°C° 0 mm 3 m/s 697 mmHg 19%
    09:00 +26°C° 0 mm 2 m/s 697 mmHg 17%
    10:00 +28°C° 0 mm 2 m/s 697 mmHg 16%
    11:00 +29°C° 0 mm 2 m/s 696 mmHg 15%
    12:00 +30°C° 0 mm 2 m/s 696 mmHg 14%
    13:00 +31°C° 0 mm 2 m/s 696 mmHg 14%
    14:00 +31°C° 0 mm 2 m/s 695 mmHg 13%
    15:00 +31°C° 0 mm 2 m/s 695 mmHg 13%
    16:00 +32°C° 0 mm 2 m/s 695 mmHg 13%
    17:00 +30°C° 0 mm 2 m/s 695 mmHg 15%
    18:00 +29°C° 0 mm 1 m/s 695 mmHg 16%
    19:00 +28°C° 0 mm 1 m/s 695 mmHg 18%
    20:00 +27°C° 0 mm 1 m/s 696 mmHg 20%
    21:00 +27°C° 0 mm 1 m/s 696 mmHg 21%
    22:00 +26°C° 0 mm 1 m/s 696 mmHg 23%
    23:00 +25°C° 0 mm 1 m/s 695 mmHg 25%
    Mostrar mais